Weather History for KMEI - March, 2013

Change the Weather History Date:

Friday, March 15, 2013

  Actual Average Record
Temperature  
Mean Temperature 57 °F 56 °F  
Max Temperature 76 °F 69 °F 88 °F (1982)
Min Temperature 37 °F 42 °F 20 °F (1988)
Degree Days  
Heating Degree Days 8 10  
Month to date heating degree days 247 174  
Since 1 July heating degree days 2134 2271  
Cooling Degree Days 0 1  
Month to date cooling degree days 0 7  
Year to date cooling degree days 16 14  
Growing Degree Days 6 (Base 50)    
Moisture  
Dew Point 39 °F    
Average Humidity 60    
Maximum Humidity 92    
Minimum Humidity 27    
Precipitation  
Precipitation 0.00 in 0.18 in 3.55 in (1956)
Month to date precipitation 1.37 2.69  
Year to date precipitation 20.20 13.42  
Sea Level Pressure  
Sea Level Pressure 30.17 in    
Wind  
Wind Speed 8 mph (SSW)    
Max Wind Speed 15 mph    
Max Gust Speed 22 mph    
Visibility 10 miles    
Events      
T = Trace of Precipitation, MM = Missing Value Source: NWS Daily Summary

Daily Weather History Graph

Daily Weather History Graph

Search for Another Location

Airport or City:

Trip Planner

Search our weather history database for the weather conditions in past years. The results will help you decide how hot, cold, wet, or windy it might be!

Date:

Astronomy

Mar. 15, 2013 Rise Set
Actual Time 7:04 AM CDT 7:03 PM CDT
Civil Twilight 6:40 AM CDT 7:27 PM CDT
Nautical Twilight 6:11 AM CDT 7:56 PM CDT
Astronomical Twilight 5:43 AM CDT 8:24 PM CDT
Moon 9:09 AM CDT (3/15) 11:00 PM CDT (3/15)
Length of Visible Light 12h 47m
Length of Day
11h 58m
Waxing Crescent, 15% of the Moon is Illuminated
Mar 15
Waxing Crescent
Mar 19
First Quarter
Mar 27
Full
Apr 2
Last Quarter
Apr 10
New

Hourly Weather History & Observations

Time (CDT) Temp. Windchill Dew Point Humidity Pressure Visibility Wind Dir Wind Speed Gust Speed Precip Events Conditions
12:58 AM 39.9 °F - 37.0 °F 89% 30.26 in 10.0 mi Calm Calm - N/A   Clear
1:58 AM 39.0 °F - 36.0 °F 89% 30.26 in 10.0 mi Calm Calm - N/A   Clear
2:58 AM 37.9 °F - 36.0 °F 93% 30.24 in 10.0 mi Calm Calm - N/A   Clear
3:58 AM 37.9 °F 35.5 °F 36.0 °F 93% 30.22 in 10.0 mi SSW 3.5 mph - N/A   Clear
4:58 AM 37.9 °F 35.5 °F 35.1 °F 89% 30.23 in 10.0 mi SSW 3.5 mph - N/A   Clear
5:58 AM 37.9 °F 34.4 °F 35.1 °F 89% 30.24 in 10.0 mi SSW 4.6 mph - N/A   Clear
6:58 AM 37.9 °F 32.1 °F 35.1 °F 89% 30.25 in 10.0 mi South 8.1 mph - N/A   Clear
7:58 AM 42.1 °F 37.7 °F 37.9 °F 85% 30.26 in 10.0 mi South 6.9 mph - N/A   Clear
8:58 AM 48.9 °F - 41.0 °F 74% 30.26 in 10.0 mi South 5.8 mph - N/A   Clear
9:58 AM 59.0 °F - 37.0 °F 44% 30.24 in 10.0 mi SW 9.2 mph - N/A   Clear
10:58 AM 64.9 °F - 37.9 °F 37% 30.23 in 10.0 mi WSW 8.1 mph - N/A   Clear
11:58 AM 69.1 °F - 39.0 °F 33% 30.21 in 10.0 mi SW 15.0 mph - N/A   Clear
12:58 PM 72.0 °F - 41.0 °F 33% 30.19 in 10.0 mi SW 11.5 mph 20.7 mph N/A   Clear
1:58 PM 73.9 °F - 41.0 °F 30% 30.14 in 10.0 mi WSW 10.4 mph 19.6 mph N/A   Clear
2:58 PM 75.0 °F - 39.0 °F 27% 30.10 in 10.0 mi WSW 12.7 mph 19.6 mph N/A   Clear
3:58 PM 75.9 °F - 39.0 °F 26% 30.08 in 10.0 mi WSW 15.0 mph - N/A   Clear
4:58 PM 75.0 °F - 39.9 °F 28% 30.08 in 10.0 mi SW 12.7 mph - N/A   Clear
5:58 PM 73.9 °F - 39.9 °F 29% 30.07 in 10.0 mi SW 12.7 mph 18.4 mph N/A   Clear
6:58 PM 66.0 °F - 43.0 °F 43% 30.07 in 10.0 mi SSW 8.1 mph - N/A   Clear
7:58 PM 61.0 °F - 43.0 °F 52% 30.06 in 10.0 mi South 8.1 mph - N/A   Clear
8:58 PM 59.0 °F - 43.0 °F 55% 30.07 in 10.0 mi South 8.1 mph - N/A   Clear
9:58 PM 60.1 °F - 43.0 °F 53% 30.07 in 10.0 mi SSW 10.4 mph - N/A   Clear
10:58 PM 60.1 °F - 41.0 °F 49% 30.07 in 10.0 mi SSW 10.4 mph - N/A   Clear